Location: Unspecified
(0.0000°N, 0.0000°E)
Time: 09:08:54
(UTC+02:00)

Cosmos 1626 Rocket - Visible Passes

Search period start: 25 September 2016 00:00
Search period end: 05 October 2016 00:00
Orbit: 602 x 632 km, 82.5° (Epoch: 23 September)

Date Brightness Start Highest point End Pass type
(mag) Time Alt. Az. Time Alt. Az. Time Alt. Az.
25 Sep 3.8 07:00:05 10° SSW 07:04:21 45° W 07:08:33 10° NNW visible
26 Sep 6.5 05:41:02 10° SE 05:43:35 15° E 05:46:08 10° ENE visible
26 Sep 4.8 07:17:50 10° SW 07:21:08 21° W 07:24:25 10° NW visible
27 Sep 5.3 05:56:25 10° SSE 06:00:24 33° E 06:04:21 10° NNE visible
28 Sep 3.6 06:12:46 10° S 06:17:13 77° E 06:21:35 10° N visible
29 Sep 3.8 06:29:46 10° SSW 06:34:00 45° W 06:38:12 10° NNW visible
30 Sep 5.7 06:53:59 10° NW 06:53:59 10° NW 06:54:02 10° NW visible
